COSMOS 2251 DEB, 35284

Orbit data source: Space-Track

COSMOS 2251 DEB, 35284 is space debris in LEO originally from a launch on Wed, 16 Jun 1993 UTC launched from the Plesetsk Missile And Space Complex (PKMTR). The debris from Iridium 33, an American commercial communications satellite, has been tracked extensively since its accidental collision with the defunct Russian satellite Cosmos 2251 in 2009. This event, occurring at high speed in low Earth orbit (LEO), generated thousands of pieces of space debris, significantly increasing the risk of further collisions. The Iridium 33 debris cloud has impacted space traffic management and orbital debris mitigation strategies, making it a subject of ongoing study in space situational awareness.

Loading next visibility...
Identifier
35284, 1993-036AJN
Orbit
LEO
Country
Flag of CISCIS
Related business
Manufacturer
Unknown
Mission
Spacecraft
Bus & Motor
Unknown
Mass
Unknown
Launch date (UTC)
1993-06-16 (33 years ago)
Launch vehicle
Unknown
Launch site
Plesetsk Missile And Space Complex (PKMTR)
Object type
Payload
Rocket body
Debris
Shape & HBR
Unknown shape, 0.1 m
Radar Cross Section
Small (<0.1 m²)

Expand to show TLE details & history
Last TLE update: 3 days ago

TLE from 3 days ago
0 COSMOS 2251 DEB
1 35284U 93036AJN 26118.96880096  .00000380  00000-0  13282-3 0  9997
2 35284  74.0509  11.7216 0015580  57.9904 320.1402 14.38470023674999
Epoch: 2026-04-28T23:15Z
TLE epoch observation values (Epoch: 2026-04-28T23:15:04.402Z)
Latitude
17.29458°
Longitude
171.09449°
Altitude
757.033 km
Speed
7.482 km/s
True Right ascension
01h 07m 11s
True Declination
17° 11' 50"
Sunlit
Object was in daylight at epoch
Visualization orbit readout
Latitude
Unknown
Longitude
Unknown
Altitude
Unknown
Speed
Unknown
Apparent Right ascension
Unknown
Apparent Declination
Unknown
Sunlit
N/A
Visualization observer readout
Local Sidereal Time
17:58:53
Azimuth
Unknown
Elevation
Unknown
Doppler factor
Unknown
Orbital elements
Apogee altitude
772.301 km
Perigee altitude
750.055 km
Semi-major axis
7,139.315 km
Eccentricity
0.00156
Inclination
74.0509°
RAAN
11.7216°
Arg. of periapsis
57.9904°
True anomaly
320.0256°
Mean anomaly
320.1402°
Eccentric anomaly
320.08292°
Mean motion
3.59798 °/min
Orbital period
100.06 mins
BSTAR
0.00013282
Loading maneuver chart data...
Computing Atmospheric mass density...

Documentation

Showing up to 5 results
|